• In Germany
  • List of Countries
  • For 7 days
  • Water Temperature
  • Satellite Maps
  • Weather Map
  • Weather Widgets
  • user-avatar
    Login

    Hourly Weather Mykhailivka

    Today, 23 July, Monday

    Time Temperature Precipitation Wind Pressure Humidity
    00:00 +19°C° 0 mm 2 mps 724 mmHg 92%
    01:00 +19°C° 0 mm 2 mps 724 mmHg 93%
    02:00 +17°C° 0 mm 2 mps 724 mmHg 91%
    03:00 +17°C° 0 mm 3 mps 724 mmHg 96%
    04:00 +16°C° 0 mm 3 mps 724 mmHg 96%
    05:00 +16°C° 0 mm 2 mps 724 mmHg 95%
    06:00 +17°C° 0 mm 2 mps 724 mmHg 94%
    07:00 +19°C° 0 mm 3 mps 724 mmHg 92%
    08:00 +20°C° 0 mm 4 mps 724 mmHg 90%
    09:00 +21°C° 0 mm 4 mps 724 mmHg 89%
    10:00 +22°C° 0 mm 5 mps 724 mmHg 88%
    11:00 +23°C° 0 mm 5 mps 724 mmHg 89%
    12:00 +23°C° 0 mm 5 mps 723 mmHg 87%
    13:00 +25°C° 0 mm 5 mps 723 mmHg 81%
    14:00 +21°C° 2.3 mm 8 mps 722 mmHg 95%
    15:00 +22°C° 2.9 mm 5 mps 722 mmHg 89%
    16:00 +23°C° 0 mm 4 mps 722 mmHg 88%
    17:00 +24°C° 0 mm 3 mps 722 mmHg 87%
    18:00 +24°C° 0 mm 3 mps 722 mmHg 88%
    19:00 +22°C° 0 mm 4 mps 721 mmHg 90%
    20:00 +21°C° 2 mm 2 mps 721 mmHg 99%
    21:00 +21°C° 0.4 mm 2 mps 721 mmHg 99%
    22:00 +20°C° 0 mm 3 mps 721 mmHg 99%
    23:00 +20°C° 0.1 mm 3 mps 721 mmHg 100%

    Tomorrow, 24 July, Tuesday

    Time Temperature Precipitation Wind Pressure Humidity
    00:00 +20°C° 0.1 mm 3 mps 721 mmHg 100%
    01:00 +19°C° 0 mm 3 mps 721 mmHg 100%
    02:00 +19°C° 0 mm 3 mps 721 mmHg 100%
    03:00 +19°C° 0 mm 3 mps 721 mmHg 100%
    04:00 +19°C° 0 mm 3 mps 722 mmHg 100%
    05:00 +19°C° 0 mm 3 mps 722 mmHg 100%
    06:00 +19°C° 0 mm 3 mps 722 mmHg 100%
    07:00 +19°C° 0 mm 3 mps 722 mmHg 100%
    08:00 +18°C° 0 mm 3 mps 722 mmHg 100%
    09:00 +19°C° 0 mm 3 mps 723 mmHg 100%
    10:00 +19°C° 0 mm 3 mps 723 mmHg 100%
    11:00 +20°C° 0 mm 4 mps 723 mmHg 100%
    12:00 +21°C° 0 mm 5 mps 723 mmHg 98%
    13:00 +22°C° 0.1 mm 4 mps 722 mmHg 94%
    14:00 +23°C° 0.6 mm 4 mps 722 mmHg 93%
    15:00 +23°C° 0 mm 5 mps 722 mmHg 89%
    16:00 +23°C° 0 mm 4 mps 722 mmHg 92%
    17:00 +23°C° 0.5 mm 4 mps 722 mmHg 89%
    18:00 +23°C° 0 mm 5 mps 722 mmHg 90%
    19:00 +23°C° 0 mm 4 mps 723 mmHg 92%
    20:00 +22°C° 0 mm 4 mps 723 mmHg 94%
    21:00 +21°C° 0 mm 4 mps 723 mmHg 98%
    22:00 +20°C° 0 mm 3 mps 723 mmHg 100%
    23:00 +20°C° 0 mm 3 mps 723 mmHg 100%

    Day after tomorrow, 25 July, Wednesday

    Time Temperature Precipitation Wind Pressure Humidity
    00:00 +20°C° 0 mm 3 mps 723 mmHg 100%
    01:00 +19°C° 0 mm 3 mps 723 mmHg 100%
    02:00 +19°C° 0 mm 2 mps 723 mmHg 100%
    03:00 +19°C° 0 mm 2 mps 723 mmHg 100%
    04:00 +19°C° 0 mm 2 mps 723 mmHg 100%
    05:00 +19°C° 0 mm 2 mps 724 mmHg 100%
    06:00 +19°C° 0 mm 3 mps 724 mmHg 100%
    07:00 +19°C° 0 mm 2 mps 724 mmHg 100%
    08:00 +19°C° 0 mm 3 mps 724 mmHg 100%
    09:00 +19°C° 0 mm 3 mps 725 mmHg 100%
    10:00 +19°C° 0 mm 3 mps 725 mmHg 100%
    11:00 +20°C° 0 mm 3 mps 725 mmHg 100%
    12:00 +20°C° 0 mm 4 mps 725 mmHg 99%
    13:00 +20°C° 0 mm 4 mps 725 mmHg 99%
    14:00 +21°C° 0 mm 4 mps 724 mmHg 98%
    15:00 +22°C° 0 mm 3 mps 724 mmHg 97%
    16:00 +24°C° 0 mm 3 mps 724 mmHg 92%
    17:00 +23°C° 0 mm 4 mps 724 mmHg 90%
    18:00 +23°C° 0 mm 4 mps 724 mmHg 92%
    19:00 +24°C° 0 mm 3 mps 724 mmHg 93%
    20:00 +23°C° 0 mm 2 mps 725 mmHg 97%
    21:00 +21°C° 0 mm 2 mps 725 mmHg 99%
    22:00 +21°C° 0 mm 2 mps 725 mmHg 99%
    23:00 +20°C° 0 mm 3 mps 725 mmHg 100%

    26 July, Thursday

    Time Temperature Precipitation Wind Pressure Humidity
    00:00 +20°C° 0 mm 3 mps 725 mmHg 100%
    01:00 +20°C° 0 mm 3 mps 725 mmHg 100%
    02:00 +20°C° 0 mm 3 mps 725 mmHg 100%
    03:00 +20°C° 0 mm 3 mps 725 mmHg 100%
    04:00 +20°C° 0 mm 2 mps 725 mmHg 100%
    05:00 +20°C° 0 mm 2 mps 725 mmHg 100%
    06:00 +20°C° 0 mm 3 mps 725 mmHg 100%
    07:00 +20°C° 0 mm 2 mps 726 mmHg 100%
    08:00 +21°C° 0 mm 2 mps 726 mmHg 99%
    09:00 +23°C° 0 mm 2 mps 726 mmHg 98%
    10:00 +22°C° 0 mm 3 mps 727 mmHg 97%
    11:00 +22°C° 0 mm 3 mps 727 mmHg 96%
    12:00 +24°C° 0 mm 3 mps 727 mmHg 94%
    13:00 +25°C° 0 mm 3 mps 726 mmHg 92%
    14:00 +25°C° 0 mm 3 mps 726 mmHg 89%
    15:00 +26°C° 0 mm 3 mps 726 mmHg 88%
    16:00 +26°C° 0.2 mm 3 mps 726 mmHg 93%
    17:00 +26°C° 1.3 mm 2 mps 726 mmHg 91%
    18:00 +25°C° 0.2 mm 3 mps 726 mmHg 93%
    19:00 +25°C° 0 mm 3 mps 726 mmHg 95%
    20:00 +24°C° 0 mm 1 mps 727 mmHg 98%
    21:00 +24°C° 0 mm 1 mps 727 mmHg 99%
    22:00 +23°C° 0 mm 1 mps 727 mmHg 100%
    23:00 +23°C° 0 mm 1 mps 727 mmHg 100%

    27 July, Friday

    Time Temperature Precipitation Wind Pressure Humidity
    00:00 +23°C° 0 mm 1 mps 727 mmHg 100%
    01:00 +22°C° 0 mm 1 mps 727 mmHg 100%
    02:00 +21°C° 0 mm 2 mps 727 mmHg 100%

    28 July, Saturday

    Time Temperature Precipitation Wind Pressure Humidity
    Show more